[Iaude] MPEC P58: 2024 OZ [a=1.95,e=0.70,i=11.9,H=20.34]

mpec at cfa.harvard.edu mpec at cfa.harvard.edu
Sun Aug 4 10:44:54 EDT 2024


M.P.E.C. 2024-P58                                Issued 2024 August 4, 14:43 UT

     The Minor Planet Electronic Circulars contain information on unusual
         minor planets, routine data on comets and natural satellites,
         and occasional editorial announcements.  They are published
    on behalf of Division F of the International Astronomical Union by the
          Minor Planet Center, Smithsonian Astrophysical Observatory,
                          Cambridge, MA 02138, U.S.A.
			  
             Prepared using the Tamkin Foundation Computer Network

                              MPC at CFA.HARVARD.EDU
            URL https://www.minorplanetcenter.net/    ISSN 1523-6714

                                    2024 OZ                                     


                           Revision to MPEC 2024-O105                           

Additional Observations:
     K24O00Z  C2005 07 05.35144 22 02 54.95 -12 14 28.7          22.5 VdEP058291
     K24O00Z  C2005 07 05.35880 22 02 55.23 -12 14 31.9          22.0 VdEP058291
     K24O00Z  C2005 07 05.36610 22 02 55.50 -12 14 34.7          22.0 VdEP058291
     K24O00Z  C2013 07 08.42764219 24 51.079-16 41 54.68         23.22GVEP058F51
     K24O00Z  C2013 07 08.42830519 24 51.003-16 41 55.04         22.49GVEP058F51
     K24O00Z  C2013 07 08.45435319 24 48.057-16 42 06.85         22.41GVEP058F51
     K24O00Z  C2013 07 08.45501419 24 47.994-16 42 06.91         23.18GVEP058F51
     K24O00Z  C2014 03 24.61121914 02 10.775+16 38 42.02         20.75GVEP058F51
     K24O00Z  C2014 03 24.61863114 02 09.581+16 38 48.01         20.65GVEP058F51
     K24O00Z  C2014 04 10.36247913 22 05.728+18 49 58.55         21.69GVEP058F51
     K24O00Z  C2014 04 10.37494213 22 04.151+18 50 00.51         22.07GVEP058F51
     K24O00Z  C2014 04 10.38732713 22 02.546+18 50 02.05         21.93GVEP058F51

Observer details:
291 LPL/Spacewatch II.  Observer M. Block.  1.8-m f/2.7 reflector + CCD.
F51 Pan-STARRS 1, Haleakala.  Observers J. Herman, T. Lowe, P. Minguez, A.
    Schultz, I. Smith.  Measurers K. Chambers, T. de Boer, J. Fairlamb, H.
    Gao, M. Huber, C.-C. Lin, E. Magnier, Y. Ramanjooloo, R. Wainscoat, R.
    Weryk.  1.8-m Ritchey-Chretien + CCD.

Orbital elements:
2024 OZ                                                  Earth MOID = 0.1152 AU
Epoch 2024 Oct. 17.0 TT = JDT 2460600.5                 Veres                   
M 358.00471              (2000.0)            P               Q                  
n   0.36309013     Peri.  306.20045     +0.36759566     -0.91325008             
a   1.9459264      Node   121.32191     +0.90555249     +0.30849041             
e   0.7021243      Incl.   11.86458     +0.21177376     +0.26609766             
P   2.71           H   20.34          G   0.15           U   0                  
Residuals in seconds of arc
050705 291  0.1+  0.4-    240704 W84  0.3+  0.3+    240728 807  0.4-  0.2-
050705 291  0.2+  0.6-    240704 F52  0.2-  0.2+    240728 807  0.1+  0.3+
050705 291  0.2+  0.4-    240704 F52  0.5+  0.2+    240728 807  0.7+  0.6+
130708 F51  0.2-  0.2-    240704 F52  0.1+  0.7-    240729 M45  0.0   0.4+
130708 F51  0.2-  0.2-    240704 F52  0.1+  0.1-    240729 M45  0.7+  0.2-
130708 F51  0.2-  0.2-    240707 W84  0.1+  0.0     240729 M45  0.4+  0.3-
130708 F51  0.1-  0.0     240709 W84  0.0   0.0     240730 H36  0.2-  0.1+
140324 F51  0.2+  0.2+    240727 F51  0.0   0.0     240730 H36  0.2-  0.1-
140324 F51  0.1+  0.1+    240727 F51  0.0   0.1-    240730 F51  0.0   0.0
140410 F51  0.0   0.0     240727 F51  0.0   0.1-    240730 F51  0.1+  0.1-
140410 F51  0.2+  0.2+    240727 F51  0.0   0.0     240730 F51  0.1+  0.1-
140410 F51  0.1-  0.0     240727 F51  0.0   0.0     240730 F51  0.0   0.0
240618 F51  0.0   0.3-    240727 M45  0.3+  0.0     240802 U52  0.0   0.4+
240618 F51  0.2+  0.2-    240727 M45  0.5+  0.1+    240802 U52  1.8-  0.3+
240618 F51  0.1-  0.0     240727 L01  0.8-  0.8+    240802 U52  1.8-  0.1-
240618 F51  0.1+  0.1+    240727 L01  0.4+  0.7+    240803 F52  0.0   0.0
240628 F51  0.0   0.3-    240727 L01 (0.8+  1.8+)   240803 F52  0.0   0.0
240628 F51  0.2+  0.1+    240728 K51  0.1+  0.1+    240803 F52  0.1+  0.1+
240628 F51  0.2-  0.3+    240728 K51  0.1+  0.0
240628 F51  0.2-  0.1+    240728 K51  0.0   0.0

Ephemeris:
2024 OZ                  a,e,i = 1.95, 0.70, 12                  q = 0.5796
Date    TT    R. A. (2000) Decl.     Delta      r    Elong.  Phase     V
2024 07 05    21 47 05.5 -13 15 44   0.7897  1.6919   138.6    23.4    22.1
...
2024 07 20    21 47 08.0 -16 35 42   0.5615  1.5402   153.9    16.9    20.9
...
2024 07 28    21 42 28.4 -19 57 39   0.4538  1.4552   162.8    11.9    20.2
...
2024 08 03    21 35 26.0 -23 40 55   0.3805  1.3896   168.3     8.5    19.5
2024 08 04    21 33 51.3 -24 26 00   0.3690  1.3785   168.8     8.2    19.4
2024 08 05    21 32 08.1 -25 13 41   0.3577  1.3673   169.0     8.1    19.4
...
2024 08 11    21 18 05.1 -31 03 30   0.2947  1.2996   164.2    12.3    19.0
...
2024 08 19    20 42 03.4 -42 27 20   0.2259  1.2069   146.5    27.6    18.7
...
2024 09 03    15 58 35.1 -64 40 04   0.1684  1.0273    91.6    79.0    19.3

A. U. Tomatic                (C) Copyright 2024 MPC           M.P.E.C. 2024-P58





More information about the Iaude mailing list